K4DXB Weather Reports


Display with metric or nautical units.
time (UTC)temp
F
wind
direction
speed
MPH
gust
MPH
rain 1hr
in
rain 24hr
in
rain mn
in
humidity
%
barometer
mb
20260506195051 65 0 0.0 0.0 0.00 0.00 0.00 8 1007.9
20260506193553 65 0 0.0 0.0 0.00 0.00 0.00 8 1008.1
20260506190553 67 0 0.0 0.0 0.00 0.00 0.00 7 1007.9
20260506183551 66 176 1.0 8.0 0.00 0.00 0.00 7 1008.1
20260506182051 67 292 0.0 5.0 0.00 0.00 0.00 7 1008.4
20260506180552 70 187 2.0 11.0 0.00 0.00 0.00 6 1008.3
20260506175051 71 250 0.0 4.0 0.00 0.00 0.00 6 1008.3
20260506173625 70 0 0.0 1.0 0.00 0.00 0.00 7 1008.3
20260506173551 70 0 0.0 1.0 0.00 0.00 0.00 7 1008.3
20260506170551 68 0 0.0 0.0 0.00 0.00 0.00 7 1008.9
20260506163551 66 225 0.0 2.0 0.00 0.00 0.00 7 1009.9
20260506162051 66 161 1.0 5.0 0.00 0.00 0.00 7 1010.1
20260506160551 67 0 2.0 10.0 0.00 0.00 0.00 7 1010.1
20260506155051 71 117 1.0 5.0 0.00 0.00 0.00 5 1010.0
20260506153552 72 59 2.0 8.0 0.00 0.00 0.00 5 1010.1
20260506152054 71 213 3.0 8.0 0.00 0.00 0.00 5 1010.0
20260506150553 71 292 0.0 3.0 0.00 0.00 0.00 6 1010.2
20260506145649 72 148 4.0 11.0 0.00 0.00 0.00 5 1010.2
20260506145051 72 148 4.0 11.0 0.00 0.00 0.00 5 1010.2
20260506143551 72 161 1.0 13.0 0.00 0.00 0.00 5 1010.0
20260506142052 72 202 1.0 4.0 0.00 0.00 0.00 5 1010.0
20260506140552 71 222 3.0 9.0 0.00 0.00 0.00 6 1009.8
20260506135051 71 180 0.0 8.0 0.00 0.00 0.00 6 1009.9
20260506133551 71 213 1.0 6.0 0.00 0.00 0.00 6 1010.2
20260506132051 71 227 1.0 6.0 0.00 0.00 0.00 6 1010.3
20260506130551 70 183 1.0 8.0 0.00 0.00 0.00 6 1010.2
20260506125051 68 157 1.0 7.0 0.00 0.00 0.00 6 1010.1
20260506123551 66 200 1.0 8.0 0.00 0.00 0.00 7 1010.3
20260506122052 65 0 0.0 1.0 0.00 0.00 0.00 7 1010.4
20260506115051 65 112 0.0 7.0 0.00 0.00 0.00 7 1010.6
20260506113551 65 0 0.0 1.0 0.00 0.00 0.00 7 1010.7
20260506112051 63 157 0.0 1.0 0.00 0.00 0.00 7 1010.7
20260506110552 63 225 0.0 1.0 0.00 0.00 0.00 8 1010.6
20260506105051 62 270 0.0 2.0 0.00 0.00 0.00 8 1010.5
20260506103552 62 225 0.0 1.0 0.00 0.00 0.00 8 1010.5
20260506102051 61 292 0.0 2.0 0.00 0.00 0.00 8 1010.4
20260506100551 62 227 1.0 7.0 0.00 0.00 0.00 8 1010.3
20260506095051 62 224 3.0 10.0 0.00 0.00 0.00 8 1010.2
20260506093553 62 187 1.0 7.0 0.00 0.00 0.00 8 1010.4
20260506090551 62 0 0.0 0.0 0.00 0.00 0.00 8 1010.4
20260506085051 62 0 0.0 0.0 0.00 0.00 0.00 8 1010.7
20260506083551 63 0 0.0 1.0 0.00 0.00 0.00 8 1010.7
20260506082051 63 135 0.0 1.0 0.00 0.00 0.00 8 1010.7
20260506080551 63 225 0.0 1.0 0.00 0.00 0.00 8 1010.7
20260506070552 63 0 0.0 1.0 0.00 0.00 0.00 8 1010.8
20260506062051 64 233 1.0 8.0 0.00 0.00 0.00 7 1010.9
20260506050551 66 202 1.0 7.0 0.00 0.00 0.00 7 1011.4
20260506045051 66 0 0.0 0.0 0.00 0.00 0.00 7 1011.6
20260506043551 66 202 1.0 5.0 0.00 0.00 0.00 7 1011.7
20260506042051 66 0 0.0 1.0 0.00 0.00 0.00 7 1011.5
20260506040551 66 157 0.0 5.0 0.00 0.00 0.00 6 1011.5
20260506035051 66 197 1.0 4.0 0.00 0.00 0.00 6 1011.5
20260506033551 67 172 1.0 8.0 0.00 0.00 0.00 6 1011.5
20260506032051 67 225 0.0 9.0 0.00 0.00 0.00 6 1011.5
20260506030553 67 249 2.0 9.0 0.00 0.00 0.00 6 1011.5
20260506025052 68 192 3.0 9.0 0.00 0.00 0.00 6 1011.4
20260506023551 69 200 1.0 9.0 0.00 0.00 0.00 5 1011.4
20260506022052 69 150 3.0 8.0 0.00 0.00 0.00 5 1011.4
20260506020551 69 185 3.0 8.0 0.00 0.00 0.00 5 1011.4
20260506015051 69 206 2.0 10.0 0.00 0.00 0.00 5 1011.2
20260506013647 69 225 1.0 5.0 0.00 0.00 0.00 5 1011.0
20260506013554 69 225 1.0 5.0 0.00 0.00 0.00 5 1011.0
20260506012052 70 0 0.0 1.0 0.00 0.00 0.00 5 1010.9
20260506010552 70 99 1.0 5.0 0.00 0.00 0.00 5 1010.8
20260506005051 71 0 0.0 2.0 0.00 0.00 0.00 5 1010.6
20260506003552 72 247 1.0 5.0 0.00 0.00 0.00 5 1010.4
20260506002051 74 206 3.0 8.0 0.00 0.00 0.00 4 1010.2
20260506000551 76 225 3.0 10.0 0.00 0.00 0.00 4 1010.1
20260505235051 77 0 0.0 6.0 0.00 0.00 0.00 3 1009.9
20260505233552 78 161 2.0 7.0 0.00 0.00 0.00 3 1009.6
20260505232051 79 188 2.0 9.0 0.00 0.00 0.00 3 1009.5
20260505230552 81 171 4.0 11.0 0.00 0.00 0.00 3 1009.3
20260505223552 81 224 5.0 10.0 0.00 0.00 0.00 3 1008.8
20260505222051 83 191 3.0 9.0 0.00 0.00 0.00 3 1008.7
20260505220551 83 201 6.0 16.0 0.00 0.00 0.00 3 1008.6
20260505215051 85 190 5.0 13.0 0.00 0.00 0.00 2 1008.5
20260505213626 85 257 6.0 11.0 0.00 0.00 0.00 2 1008.6
20260505213552 85 257 6.0 11.0 0.00 0.00 0.00 2 1008.6
20260505212051 86 214 6.0 10.0 0.00 0.00 0.00 2 1008.4
20260505210551 86 227 3.0 7.0 0.00 0.00 0.00 2 1008.2
20260505205051 86 233 5.0 12.0 0.00 0.00 0.00 2 1008.4
20260505203552 86 152 6.0 13.0 0.00 0.00 0.00 2 1008.5
20260505202052 86 221 7.0 19.0 0.00 0.00 0.00 2 1008.4